www.pogodaiklimat.ru

Погода и климат >> Архив погоды >> Россия >> Марий-Эл >> Козьмодемьянск


ПОГОДА в Козьмодемьянске

  • Прогноз погоды в Козьмодемьянске
  • Монитор погоды в Козьмодемьянске

АРХИВ ПОГОДЫ в Козьмодемьянске

Время (UTC), дата Ветер
(напр.,м/с)
 
Видим.   Явления Облачность Т
(С)
Тd
(С)
f
(%)
Тe
(С)
Тes
(С)
Комфортность P
(гПа)
Po
(гПа)
Тmin
(С)
Tmax
(С)
R
(мм)
R24
(мм)
S
(см)
12 13.05 С 2-3
{4}
50 км 8/3 600 м
[Cb calv Ac trans Ci fib]
+28.6 +11.4 34 +29 +33 жарко 1018.3 1006.1
15 13.05 СВ 3-4
{10}
50 км 8/3 600 м
[Cb calv Ac trans Ci fib]
+25.8 +11.0 39 +27 +27 жарко 1018.0 1005.7 +29.6
18 13.05 С 2-3
{4}
50 км 4/0
[Ac trans]
+20.1 +11.4 57 +22 +22 комфорт 1017.8 1005.2
21 13.05 З 2-3
{3}
10 км ясно +18.1 +10.5 61 +19 +19 1017.7 1005.1
00 14.05 СВ 2-3
{4}
10 км 8/0
[Ac trans Ci fib]
+17.6 +11.5 67 +18 +18 1016.3 1003.7
03 14.05 В 2-2
{3}
50 км 10/4 600 м
[Cb calv Ac trans Ci fib]
+17.8 +11.4 66 +18 +19 1015.8 1003.2 +17.4
06 14.05 СВ 1-1
{4}
50 км 10/8 570 м
[Cb calv Ac trans Ci fib]
+18.6 +14.5 77 +20 +22 1015.7 1003.1 +17.3
09 14.05 СВ 1-2
{3}
50 км 10/3 600 м
[Cb calv Ac trans Ci fib]
+20.8 +15.1 70 +25 +31 комфорт 1015.0 1002.5
12 14.05 СВ 1-2
{4}
50 км 10/3 600 м
[Cb calv Ci fib]
+24.2 +17.1 65 +28 +34 душно 1014.4 1002.1
15 14.05 С 1-2
{5}
50 км 8/1 600 м
[Cb calv Ci fib]
+23.9 +14.5 56 +27 +28 жарко 1013.3 1001.0 +24.9
18 14.05 СЗ 1-2
{4}
50 км 10/0
[Ac trans Ci fib]
+20.4 +15.0 71 +24 +24 комфорт 1013.6 1001.1
21 14.05 В 2-4
{4}
10 км 10/0
[Ci fib]
+18.0 +15.6 86 +19 +19 1013.4 1000.8
00 15.05 В 1-2
{6}
10 км 8/0
[Ac trans Ci fib]
+15.8 +14.0 89 +16 +16 1013.9 1001.2
03 15.05 ЮВ 2-4
{4}
50 км 10/1 600 м
[Cb calv Ci fib]
+15.9 +14.3 90 +16 +17 1014.2 1001.5 +15.3
06 15.05 В 2-3
{4}
50 км 8/1 600 м
[Cb calv Ac trans Ci fib]
+18.1 +14.9 82 +19 +24 1015.0 1002.4
09 15.05 В 2-3
{4}
50 км 3/1 600 м
[Cu med, cong Ci fib]
+22.7 +15.9 65 +27 +39 душно 1014.8 1002.4
12 15.05 В 2-3
{4}
50 км 6/3 600 м
[Cb calv Ci fib]
+24.9 +15.0 54 +28 +34 жарко 1014.0 1001.7
15 15.05 ЮВ 1-2
{3}
50 км в посл. час гроза 10/3 600 м
[Cb calv Ci ing]
+23.4 +18.0 72 +29 +30 душно 1013.5 1001.2 +25.3
18 15.05 ЮЗ 2-3
{6}
4500 м гроза, ливневой дождь 10/10 450 м
[Cb cap]
+16.6 +15.4 93 +17 +17 1015.8 1003.1
21 15.05 ЮВ 3-4
{6}
10 км в посл. час ливневой дождь {гроза} 10/10 630 м
[Cb calv]
+16.3 +15.2 93 +16 +16 1014.7 1002.0
00 16.05 СЗ 1-2
{4}
10 км {гроза, ливн. осадки} 10/10 700 м
[Cb calv]
+15.1 +14.6 97 +16 +16 1014.3 1001.5
03 16.05 СЗ 1-1
{3}
7000 м дымка 10/10 630 м
[Cb calv]
+15.5 +15.0 97 +16 +16 1014.1 1001.4 +14.9 17
06 16.05 СЗ 2-4
{7}
4100 м ливневой дождь 10/10 180 м
[Cb cap]
+14.5 +14.1 97 +14 +14 1015.5 1002.7 +14.4
09 16.05 СЗ 2-5
{8}
50 км в посл. час ливневой дождь 10/10 180 м
[Cb cap]
+13.6 +12.8 95 +13 +13 1016.4 1003.6
12 16.05 С 3-8
{9}
50 км {ливн. осадки} 10/10 360 м
[Cb cap]
+12.6 +10.9 89 +11 +11 1017.7 1004.8
15 16.05 С 2-5
{9}
50 км 8/6 420 м
[Cb calv Ci fib]
+13.7 +9.2 74 +13 +14 1018.6 1005.8 +15.5 25
18 16.05 З 2-3
{5}
50 км 4/0
[Ac trans Ci fib]
+10.8 +8.8 87 +9 +9 1019.1 1006.1
21 16.05 С 3-6
{7}
10 км 8/0
[Ac trans Ci fib]
+9.6 +4.1 69 +8 +8 1020.9 1007.7
00 17.05 СЗ 2-5
{6}
10 км ясно +6.6 +2.5 75 +4 +4 1021.6 1008.3
03 17.05 С 2-5
{6}
50 км ясно +7.1 +1.9 69 +5 +7 1022.5 1009.2 +5.7
06 17.05 СЗ 3-4
{6}
50 км 3/3 600 м
[Cu hum]
+11.4 +2.3 54 +10 +16 1022.5 1009.4
09 17.05 СЗ 4-6
{8}
50 км 8/8 840 м
[Cu med, cong]
+13.8 0.0 39 +13 +15 1021.7 1008.7
12 17.05 СЗ 3-4
{6}
50 км 6/6 840 м
[Cu hum]
+15.1 0.0 36 +15 +18 1019.7 1006.9
15 17.05 СЗ 4-6
{8}
50 км 4/4 600 м
[Cu hum]
+15.0 -0.9 34 +14 +15 1018.2 1005.4 +15.6
18 17.05 З 3-5
{7}
50 км 6/0
[Ac trans Ci fib]
+13.1 -0.5 39 +12 +12 1017.1 1004.2
21 17.05 З 4-7
{9}
10 км 10/0
[Ac trans]
+12.7 +1.1 45 +11 +11 1015.4 1002.5
00 18.05 З 3-5
{7}
10 км 10/3 600 м
[Cb calv Ac trans]
+10.4 +3.6 63 +9 +9 1014.8 1001.9
03 18.05 З 3-4
{5}
50 км 6/0
[Ac trans]
+11.4 +5.1 65 +10 +11 1014.4 1001.5 +10.3
06 18.05 С 3-6
{7}
50 км 6/6 840 м
[Cu med, cong]
+11.5 +4.0 60 +10 +13 1013.6 1000.7
09 18.05 СЗ 5-10
{11}
50 км 8/8 870 м
[Cu med, cong]
+12.8 +0.6 43 +11 +13 1013.2 1000.3
12 18.05 С 4-9
{11}
50 км 6/4 600 м
[Cu med, cong Ci fib]
+14.2 -1.7 33 +13 +17 1012.4 999.5
15 18.05 С 4-8
{12}
50 км 9/0
[Ac trans]
+12.5 -0.5 41 +11 +11 1012.5 999.6 +14.5
18 18.05 З 3-7
{8}
50 км 10/0
[Ac trans Ci fib]
+10.7 -0.5 46 +9 +9 1011.9 999.0
21 18.05 С 4-8
{10}
10 км слаб. ливневой дождь 10/10 540 м
[Cb cap]
+8.8 +1.5 60 +6 +6 1011.9 998.9
00 19.05 СЗ 2-5
{9}
10 км {ливн. осадки} 1/0
[Ci sp]
+4.5 +2.2 85 +2 +2 1013.0 999.8
03 19.05 СЗ 3-7
{7}
50 км ясно +4.6 +1.0 77 +1 +3 1013.6 1000.4 +3.8 0.0
06 19.05 СЗ 3-8
{9}
50 км 8/8 540 м
[Cb calv]
+7.0 -1.9 53 +5 +6 1013.5 1000.4
09 19.05 СЗ 4-10
{10}
50 км 10/0
[Ac und]
+7.7 -3.3 46 +5 +8 1014.2 1001.1
12 19.05 СЗ 4-8
{9}
50 км 10/0
[Ac und]
+8.2 -1.9 49 +6 +7 1015.4 1002.3
15 19.05 С 3-6
{10}
50 км 9/0
[Ac trans]
+8.6 -0.7 52 +7 +7 1016.2 1003.1 +9.0
18 19.05 З 2-4
{8}
50 км 3/0
[Ac trans]
+7.0 -1.4 55 +5 +5 1017.0 1003.8
21 19.05 З 4-7
{7}
10 км 3/0
[Ac trans]
+6.8 -0.3 61 +4 +4 1016.7 1003.5
00 20.05 З 2-3
{8}
50 км 9/0
[Ac trans]
+4.4 +0.8 77 +2 +2 1017.8 1004.5
03 20.05 З 2-5
{5}
50 км 10/0
[Ac und]
+5.2 +0.8 73 +3 +3 1019.0 1005.7 +4.0
06 20.05 СЗ 3-6
{8}
50 км 10/1 600 м
[Sc diur, vesp Ac trans]
+8.9 +1.1 58 +7 +10 1019.3 1006.2
09 20.05 СЗ 3-7
{9}
50 км 9/4 600 м
[Cu med, cong Ac trans]
+11.2 +0.2 47 +10 +13 1018.6 1005.6

 

Местоположение метеостанции Козьмодемьянск (Марий-Эл, Россия): широта 56.33 долгота 46.58 высота над уровнем моря 107 м.

В архиве по умолчанию представлена погода в Козьмодемьянске за последнюю неделю. Архивные данные за месяц целиком и за предыдущие месяцы, начиная с января 2011 года, Вы можете получить, выбрав интересующий диапазон дат из раскрывающегося списка и нажав кнопку "Ввод!".


*Определитесь, кто Вы:
робот инопланетянин человек

Внимание! Время в таблицах - всемирное. Для получения местного времени необходимо прибавить поправку, которая равна 3 ч.

Смотрите также архив погоды в соседних городах и на ближайших метеорологических станциях:

Погода в Чебоксарах (Чувашия, Россия) (54 км)
Погода в Йошкар-Оле (Марий-Эл, Россия) (80 км)
Погода в Санчурске (Кировская область, Россия) (85 км)
Погода в Воскресенском (Нижегородская область, Россия) (88 км)
Погода в Лысково (Нижегородская область, Россия) (102 км)
Погода в Канаше (Чувашия, Россия) (106 км)
Погода в Сергаче (Нижегородская область, Россия) (112 км)
Погода в Красных Баках (Нижегородская область, Россия) (124 км)
Погода в Порецком (Чувашия, Россия) (129 км)
Погода в Вязовых (Татарстан, Россия) (133 км)

Пояснения к столбцам:

Ветер - указаны скорость ветра в м/с - средняя за 10 мин, порывы в срок и между сроками (в фигурных скобках) и направление, откуда дует ветер: С - северный, СВ - северо-восточный, В - восточный, ЮВ - юго-восточный, Ю - южный, ЮЗ - юго-западный, З - западный, СЗ - северо-западный.
Видимость - горизонтальная дальность видимости в метрах или километрах. При видимости от 1 до 10 км при отсутствии осадков обычно наблюдается дымка, при ухудшении видимости до 1 км и менее - туман. В сухую погоду видимость может ухудшаться дымом, пылью или мглою.
Явления - указаны атмосферные явления, наблюдавшиеся в срок или в последний час перед сроком; фигурными скобками обозначены явления, наблюдавшиеся между сроками (за 1-3 часа до срока); квадратными скобками обозначены град или гололедные отложения с указанием их диаметра в мм.
Облачность - указаны через наклонную черту общая и нижняя облачность в баллах и высота нижней границы облаков в метрах; квадратными скобками обозначены формы облаков: Ci - перистые, Cs - перисто-слоистые, Cc - перисто-кучевые, Ac - высококучевые, As - высокослоистые, Sc - слоисто-кучевые, Ns - слоисто-дождевые, Cu - кучевые, Cb - кучево-дождевые. Подробнее классификацию облаков см. в Атласе облаков (PDF).
T - Температура воздуха - температура, измеренная на высоте 2 м над землей.
Td - Температура точки росы - температура, при понижении до которой содержащийся в воздухе водяной пар достигнет насыщения.
f - Относительная влажность воздуха - влажноcть воздуха, измеренная на высоте 2 м над землей.
Te - Эффективная температура - температура, которую ощущает одетый по сезону человек в тени. Характеристика душности погоды. При расчете учитывается влияние влажности воздуха и скорости ветра на теплоощущения человека.
Tes - Эффективная температура на солнце - температура, которую ощущает человек, с поправкой на солнечный нагрев. Характеристика знойности погоды. Зависит от высоты солнца над горизонтом, облачности и скорости ветра. Ночью, в пасмурную погоду, а также при ветре 12 м/с и более поправка равна нулю.
P - Атмосферное давление - приведенное к уровню моря атмосферное давление.
Po - Атмосферное давление - измеренное на уровне метеостанции атмосферное давление.
Tmin - Минимальная температура - минимум температуры воздуха на высоте 2 м над землей.
Tmax - Максимальная температура - максимум температуры воздуха на высоте 2 м над землей.
R - Количество осадков - Количество выпавших осадков за период времени, мм. При наведении курсора мыши на число - период времени, за который выпало указанное количество осадков.
R24 - Количество осадков - Количество выпавших осадков за 24 часа, мм.
S - Снежный покров - Высота снежного покрова, см. При наведении курсора мыши на число - состояние снежного покрова и степень покрытия местности в баллах.